Wind_Speed
36 35 35 33 32 32 31 28 27 26 24 22 21 19 19 19 18 16 16 16 16 17 16 15 14 12 11 11 11 11 12 12 11 11 12 12 13 13 13 14 15 16 16 16 16 16 18 19 19 19 18 17 17 17 16 15 15 15 15 15 15 14 14 12 9 10 19 22 22 25 28 29 29 28 29 32 33 33 33 34 35 34 34 35 36
35 32 31 29 27 29 30 29 28 27 25 24 21 20 20 20 18 17 17 17 17 18 17 15 14 14 13 13 13 14 15 15 14 14 14 13 13 14 14 15 16 17 17 17 17 17 18 19 20 19 18 19 19 19 18 17 17 18 18 18 19 18 16 17 14 11 16 23 24 26 28 28 27 28 28 31 33 34 33 34 35 35 34 35 36
31 30 31 30 29 30 31 30 29 28 26 25 22 20 20 20 19 19 18 17 18 18 17 16 16 16 16 16 16 17 17 17 17 17 17 17 16 16 15 15 16 17 18 18 18 18 19 20 21 19 18 19 20 21 21 20 20 21 21 21 21 21 20 20 19 15 15 21 24 24 27 28 28 28 28 31 33 33 33 34 35 35 35 35 35
29 32 35 35 34 34 33 31 30 29 27 25 23 21 20 20 20 19 19 19 19 19 17 17 18 18 18 18 19 19 19 19 18 18 18 19 19 18 17 17 17 17 17 18 19 19 20 21 21 19 18 19 20 22 23 24 23 23 24 24 23 24 24 23 24 22 18 18 23 25 27 28 30 30 30 31 32 32 32 33 34 35 36 35 35
33 37 38 35 35 35 34 32 31 30 28 26 24 22 21 21 21 20 20 20 20 18 17 18 19 20 20 20 20 19 18 17 16 15 14 15 16 17 18 17 18 17 17 18 18 18 19 20 21 20 19 20 21 22 23 25 26 25 26 26 26 27 27 26 27 26 21 18 23 26 27 28 30 31 30 30 32 32 32 32 34 34 35 36 35
36 38 37 36 36 36 34 33 31 30 30 28 25 23 22 21 21 21 22 21 20 18 17 18 20 20 20 19 18 17 15 13 12 11 11 12 13 15 16 17 17 17 17 17 17 17 18 19 20 19 20 21 21 22 22 24 26 27 28 28 29 29 29 30 28 25 21 21 23 25 27 28 28 29 30 29 28 31 33 33 32 32 34 36 36
37 40 42 40 35 32 32 33 33 32 31 29 26 24 22 22 21 22 22 21 19 18 18 19 19 19 18 16 16 15 14 12 11 11 12 12 13 14 15 16 16 17 17 17 16 17 18 18 18 18 18 20 21 21 22 23 24 26 27 28 29 29 29 29 27 23 22 22 22 23 25 26 27 29 31 29 26 27 30 30 30 31 34 35 35
38 43 41 33 27 29 33 33 33 33 31 28 26 24 24 22 21 21 22 21 20 20 19 19 19 17 16 15 15 15 13 12 12 12 13 14 14 15 15 15 16 17 17 17 17 17 18 18 18 18 18 18 19 20 21 22 22 23 24 25 26 27 27 26 25 23 22 21 21 22 23 24 26 29 30 27 23 23 26 28 29 31 33 36 36
41 41 36 30 29 35 39 36 33 32 30 28 26 25 25 22 21 23 25 24 23 21 20 20 18 16 15 14 15 15 14 14 14 14 14 15 15 15 15 15 16 17 18 18 18 18 18 18 19 19 19 18 18 18 19 19 20 21 22 22 23 24 24 24 23 22 21 20 20 20 20 20 24 27 26 24 22 25 29 29 30 32 32 35 38
41 40 38 38 39 39 36 32 30 30 29 27 26 27 26 23 23 27 29 27 24 23 22 21 19 16 14 13 13 13 13 14 14 14 15 16 16 16 15 16 17 18 19 19 20 20 19 19 19 19 20 20 19 19 19 19 19 20 20 20 21 22 22 22 22 21 19 18 18 20 19 20 24 26 26 26 26 28 30 28 28 32 31 29 32
40 41 40 39 35 29 25 23 24 27 28 27 26 26 25 26 29 31 30 27 25 24 23 22 20 17 14 13 13 13 13 13 13 15 16 16 17 17 16 17 17 19 20 20 20 20 20 20 20 21 22 22 21 21 20 20 19 19 19 20 19 20 20 21 22 22 20 19 19 21 21 22 24 26 28 29 28 28 29 28 27 29 27 20 21
37 32 27 23 19 20 22 24 24 25 26 25 23 22 25 31 34 32 30 27 25 24 24 23 21 18 16 16 16 16 16 15 15 15 16 16 17 17 17 17 18 19 20 19 19 19 19 20 21 22 23 22 22 21 21 20 20 19 19 19 19 18 19 20 21 22 22 21 21 22 23 23 24 27 29 30 29 28 29 30 28 27 27 22 20
22 18 17 18 19 24 31 31 26 25 25 22 21 22 28 36 36 33 30 27 24 24 24 24 22 19 18 18 18 18 18 17 17 17 17 16 16 16 16 17 19 20 20 19 19 18 19 20 21 23 25 23 21 20 21 21 20 19 18 18 19 19 18 19 20 21 23 23 24 26 27 27 26 29 31 31 30 29 29 31 31 29 28 27 28
21 23 26 28 29 33 36 34 30 30 27 24 24 26 31 36 36 32 29 25 23 23 24 24 23 21 20 19 19 19 19 18 18 17 17 17 15 15 16 17 19 20 20 20 20 20 19 20 21 23 23 21 18 17 19 20 20 18 18 19 20 19 19 20 22 22 21 22 24 27 30 29 29 31 33 33 32 32 31 33 35 33 33 35 37
31 34 37 39 39 38 36 34 34 33 29 28 29 30 33 36 34 30 27 25 23 24 24 24 23 21 20 20 19 20 20 19 17 17 16 16 14 14 16 17 19 21 21 22 21 20 18 18 19 20 18 17 16 15 17 18 18 18 19 20 21 20 20 22 23 22 21 21 22 26 28 30 31 32 33 34 34 35 36 38 40 39 39 40 39
35 36 39 40 40 40 37 32 31 32 31 31 32 32 33 34 32 29 26 24 23 23 24 23 22 21 20 20 21 21 20 19 18 17 16 14 14 15 16 17 19 21 22 22 21 20 18 16 16 16 16 16 16 15 15 17 17 18 20 20 20 21 23 25 24 23 22 22 23 25 27 29 30 31 31 31 33 37 38 39 40 39 35 31 30
34 35 37 37 39 40 37 31 32 34 33 32 32 33 31 31 31 28 24 23 23 23 23 23 21 21 21 22 22 21 20 19 17 16 15 14 15 16 17 18 18 20 21 21 20 20 19 16 15 15 15 16 17 16 16 16 17 18 19 19 19 22 25 26 25 24 24 26 27 27 27 28 27 26 27 28 32 37 35 33 36 36 29 21 19
33 34 36 37 39 39 38 37 39 38 35 34 34 32 29 29 28 25 22 23 24 25 25 23 22 22 22 20 19 18 18 17 16 15 14 14 15 16 17 17 18 18 19 19 19 20 19 17 15 15 16 17 16 15 15 16 16 16 16 17 20 24 26 26 25 26 27 28 29 28 27 27 26 25 26 28 34 36 33 32 36 36 29 21 20
32 32 34 36 37 37 37 40 41 39 37 36 33 29 27 26 26 24 22 24 25 25 24 22 21 20 18 16 15 16 17 16 14 14 14 14 15 16 16 16 16 17 17 18 19 19 18 16 16 16 16 16 15 14 14 14 13 14 15 17 20 23 24 23 24 27 28 29 29 29 28 28 27 26 27 30 34 36 34 35 37 36 32 30 29
26 24 27 32 35 35 37 40 41 38 37 34 28 25 24 24 24 23 22 24 24 23 21 19 19 18 15 13 12 13 15 14 13 13 14 15 15 15 15 16 16 16 16 17 19 18 16 16 17 16 15 14 14 14 13 12 13 14 15 16 17 19 20 21 23 24 25 25 26 27 28 28 27 27 28 30 33 35 36 37 38 38 36 36 37
20 25 30 33 33 33 35 38 38 36 33 28 23 22 23 24 24 23 22 22 22 21 19 19 19 18 15 14 12 11 12 14 13 13 14 14 13 13 14 15 15 15 16 17 17 17 17 18 17 15 14 14 13 12 12 12 13 12 12 11 12 15 18 20 22 22 21 22 22 23 25 26 27 28 29 30 32 35 38 39 39 40 38 38 40
24 29 30 29 29 31 33 34 32 29 26 23 21 22 23 24 23 21 21 21 21 20 19 18 17 16 15 15 14 11 12 14 14 13 13 12 12 12 13 14 13 14 15 17 17 17 18 18 17 15 14 14 13 12 12 11 9 8 8 9 11 14 16 18 18 19 20 20 20 21 23 24 26 29 30 31 34 36 39 41 42 43 42 42 43
26 27 25 24 26 28 30 29 26 22 20 20 22 23 24 23 21 19 19 20 20 19 18 17 15 14 14 16 15 12 12 13 13 13 12 12 13 13 13 13 13 14 15 16 17 17 17 17 16 16 15 15 15 13 10 7 5 5 6 8 11 14 15 15 15 16 17 17 18 20 22 23 26 29 31 33 36 38 40 41 42 45 45 45 46
26 27 28 28 25 23 24 24 20 18 19 21 23 24 24 24 22 19 19 19 18 18 17 16 14 12 14 17 15 11 11 12 12 13 13 13 13 13 13 12 13 13 14 15 16 16 16 16 16 16 16 15 13 8 4 2 3 5 6 8 11 14 13 13 14 15 16 16 17 20 22 24 26 29 32 34 36 38 39 40 43 45 45 46 47
25 27 29 27 22 19 20 20 18 19 21 23 25 25 25 24 22 20 19 19 18 17 16 14 13 13 15 16 13 9 10 12 13 13 12 11 11 12 11 12 13 14 14 14 14 14 15 15 15 14 13 9 5 3 3 1 3 5 6 8 10 11 11 12 14 16 17 17 18 19 22 26 27 29 31 33 34 36 38 40 43 46 48 50 48
23 24 25 23 20 19 20 19 19 20 22 24 25 26 25 23 21 20 19 18 17 16 14 13 14 15 15 13 10 9 11 12 12 11 10 9 9 10 11 12 13 13 14 14 13 12 11 9 7 6 3 3 6 4 2 2 4 5 6 7 8 9 11 12 14 16 17 18 19 20 23 26 28 29 31 32 33 34 36 38 41 44 48 49 44
19 18 18 19 20 21 22 21 20 20 21 23 23 23 23 22 20 20 19 18 17 15 14 14 14 14 12 11 10 10 11 11 11 9 8 8 9 10 12 12 12 13 13 13 11 9 5 1 2 2 4 6 6 4 3 4 5 6 6 6 7 9 10 11 12 14 16 17 19 21 23 25 27 29 31 31 32 33 35 36 36 38 43 42 35
16 13 14 17 20 22 23 23 22 22 21 20 20 20 20 20 20 20 19 18 17 16 15 14 13 11 11 11 10 10 10 10 10 9 9 9 10 11 12 12 12 12 11 11 9 6 5 6 5 4 4 4 4 4 3 3 4 5 5 6 8 10 11 12 13 14 16 17 19 21 23 25 27 29 30 31 31 32 35 36 34 35 38 37 28
18 16 16 19 20 22 23 23 22 21 20 19 19 18 17 17 18 17 16 16 15 14 13 11 10 9 9 8 8 9 9 10 10 10 10 10 10 11 10 10 10 9 9 8 6 5 7 7 4 2 2 2 2 1 1 2 3 4 6 8 10 12 13 14 15 16 17 18 20 21 23 25 26 28 29 29 31 32 34 34 33 33 36 34 28
21 19 18 19 19 20 21 21 21 21 21 21 19 17 15 15 15 14 13 13 12 11 10 9 8 8 7 6 6 7 8 9 9 9 9 9 10 9 8 7 6 5 5 4 4 7 7 5 2 1 1 2 2 3 4 5 6 7 8 10 11 13 14 15 15 16 17 18 20 21 22 24 25 27 28 28 30 33 33 32 32 32 32 30 28
18 17 18 19 20 22 23 23 22 22 21 21 20 17 14 12 11 10 10 9 9 9 9 8 8 8 6 6 6 6 6 6 7 7 7 8 8 7 6 4 2 2 1 2 5 5 4 2 1 0 1 1 3 5 5 6 8 9 10 10 12 13 14 15 15 16 17 19 20 20 22 23 24 25 26 27 28 30 31 31 31 30 30 29 27
14 17 20 22 23 23 24 23 22 21 20 19 18 16 15 13 11 10 8 8 8 8 8 8 8 7 6 6 6 5 5 5 5 6 6 6 5 5 4 3 1 0 1 3 4 3 2 2 1 1 1 2 4 6 7 7 8 9 10 11 12 13 13 14 14 15 16 18 19 20 21 22 24 25 25 26 26 27 28 29 30 28 27 28 29
20 21 22 22 22 22 22 22 21 21 20 19 18 17 17 17 16 13 11 9 8 8 8 8 7 6 6 5 5 4 4 3 3 4 4 4 4 5 4 3 2 1 2 4 3 3 2 2 2 3 4 4 6 6 7 8 8 9 9 10 11 12 12 12 13 14 15 17 19 20 20 22 23 25 26 26 26 26 26 27 28 27 25 25 27
22 21 22 22 22 21 22 22 22 21 21 21 21 21 20 20 19 18 16 14 11 10 9 8 7 6 6 6 5 4 4 2 1 3 4 2 3 5 4 4 2 2 2 3 3 4 4 4 4 4 4 5 5 6 6 7 8 9 10 11 11 11 12 12 13 14 15 17 19 20 21 22 23 24 25 26 26 25 25 25 26 25 24 23 23
19 18 20 21 22 22 22 23 23 23 23 23 23 23 22 20 20 20 19 18 16 13 11 9 8 7 7 6 6 5 4 2 3 4 4 2 3 4 4 3 2 1 1 2 3 4 4 4 3 4 4 4 5 5 6 7 8 10 12 12 12 12 12 12 13 14 16 18 19 21 21 22 23 23 24 24 24 24 25 25 24 24 23 23 23
16 16 18 20 22 23 23 23 23 23 24 24 24 23 22 20 19 18 17 16 15 14 12 11 10 9 8 7 6 5 4 1 1 2 2 1 3 4 4 4 3 3 3 3 4 4 4 3 3 3 3 4 5 6 8 8 9 10 11 11 11 11 11 12 13 15 16 17 19 20 22 22 23 24 24 23 24 24 24 25 24 23 23 23 22
15 17 18 20 20 19 19 20 20 21 22 23 23 22 20 17 16 15 14 14 14 14 14 13 12 11 10 9 8 6 4 3 3 3 3 2 3 4 5 5 5 5 5 5 5 4 4 4 3 2 2 3 5 7 9 10 10 9 10 10 10 10 10 11 13 14 16 17 18 20 22 23 24 24 23 23 24 25 25 26 25 24 24 24 23
15 16 16 16 15 14 14 15 16 18 19 20 20 20 18 15 13 12 12 13 14 15 16 15 14 14 13 11 9 7 6 5 6 6 6 5 4 3 4 5 6 6 6 5 5 4 5 5 4 2 1 3 5 8 10 10 9 9 10 9 8 8 9 10 12 13 15 16 18 20 21 23 24 24 23 23 23 24 25 25 25 24 25 25 23
13 13 12 12 11 10 11 12 14 15 17 18 18 18 16 13 11 11 11 13 14 16 17 16 16 15 14 11 9 8 7 6 6 7 7 6 5 4 3 4 6 6 6 6 5 5 5 5 3 1 1 3 6 9 10 9 9 10 9 8 7 8 9 10 12 14 15 17 18 19 21 23 23 23 23 23 23 24 24 24 24 23 22 23 23
13 13 12 11 11 11 11 12 14 14 15 15 16 16 14 13 13 13 14 15 16 17 17 18 17 17 14 11 9 8 7 7 8 8 8 7 6 5 5 6 6 7 6 6 6 6 6 4 2 1 1 3 6 9 10 9 9 8 7 6 7 8 10 11 12 13 14 16 17 19 20 22 23 23 24 24 24 24 23 23 24 23 22 22 23
13 14 13 12 12 12 11 12 13 13 13 13 15 15 15 14 14 15 16 17 16 17 18 19 18 17 15 12 9 8 8 8 9 9 8 7 7 7 7 8 8 7 7 7 7 7 6 4 2 1 1 3 6 9 9 8 8 7 6 5 6 8 9 10 11 12 13 15 16 18 19 21 22 22 23 24 24 24 24 24 24 24 23 23 23
14 15 15 13 12 11 11 11 12 12 12 12 13 15 15 16 16 17 18 18 17 17 18 18 17 16 14 12 9 8 9 9 10 9 9 8 7 7 8 9 9 8 8 7 6 6 6 4 3 2 0 3 6 8 9 8 7 7 6 5 6 7 9 10 11 12 13 13 15 17 18 19 20 21 21 22 23 24 25 25 25 25 24 24 24
15 15 14 13 11 11 11 12 12 12 12 13 14 16 17 17 18 18 19 18 17 17 18 18 16 15 14 12 10 10 11 11 10 10 9 8 7 7 8 9 9 9 8 7 6 7 6 5 4 3 0 3 6 8 9 8 7 7 6 5 5 7 8 10 11 11 12 13 14 16 17 18 19 20 20 21 22 23 24 25 24 25 24 23 23
16 14 13 12 12 12 12 12 12 13 13 14 15 16 17 17 17 17 17 17 17 17 18 18 17 16 16 14 13 12 12 12 11 10 9 9 8 8 9 9 8 9 10 8 7 6 6 4 3 3 0 3 5 8 9 9 7 6 6 5 5 6 8 9 11 12 12 13 14 15 16 17 18 19 19 20 20 22 23 24 24 24 24 24 23
15 14 13 13 13 13 13 12 12 13 14 14 14 15 16 17 17 18 18 18 17 17 17 18 18 19 18 17 16 14 14 13 11 11 11 10 9 9 9 9 8 9 10 8 6 5 5 4 3 2 1 3 5 7 9 10 9 7 7 6 5 5 7 9 10 11 12 13 14 14 15 15 16 17 18 18 19 20 21 22 23 23 24 24 23
14 14 14 14 14 14 13 13 13 13 14 14 14 14 15 16 17 18 18 17 17 16 16 18 20 20 20 18 17 16 15 14 12 12 12 12 10 9 8 9 9 10 10 8 6 5 5 5 3 2 1 2 4 6 9 11 10 9 8 8 6 5 6 8 9 10 11 12 13 13 13 14 15 15 15 15 16 18 20 21 22 22 23 23 23
13 13 12 12 13 14 14 14 14 14 14 14 14 14 14 15 16 16 16 16 16 16 17 18 20 21 20 19 18 17 16 16 15 13 13 13 12 11 9 9 11 12 10 8 7 7 6 5 4 2 2 2 2 4 8 11 12 11 10 9 7 5 4 6 7 8 9 11 12 12 11 12 13 13 13 14 14 16 18 19 20 21 22 22 23
12 11 11 11 12 13 15 14 13 13 13 14 14 14 14 14 14 15 15 16 17 18 18 19 20 21 21 20 18 18 18 18 17 15 14 14 14 13 12 10 12 13 12 10 9 8 7 6 5 3 2 1 1 3 6 9 11 12 12 11 9 6 4 4 6 7 8 10 11 9 9 11 11 11 11 13 14 16 17 18 18 20 21 22 23
9 10 10 11 12 12 13 13 13 13 13 14 15 15 15 15 15 15 15 16 18 19 20 20 21 22 23 22 20 19 19 20 19 18 16 15 15 15 14 12 12 13 13 12 11 9 8 6 5 4 3 2 1 2 4 6 9 11 12 13 11 7 5 4 4 5 6 9 9 8 7 9 10 10 11 12 13 14 15 16 17 19 21 22 23
9 9 10 10 9 9 9 9 10 11 12 13 14 15 15 16 16 17 17 17 18 20 21 21 22 23 24 25 23 22 21 22 21 20 18 17 16 15 14 12 13 13 13 13 12 10 8 6 5 4 4 4 3 2 3 5 7 10 12 14 13 10 6 4 4 4 5 7 8 6 6 8 9 9 10 12 12 13 15 16 17 19 20 21 22
10 9 8 8 7 5 4 3 4 6 8 10 12 14 16 17 18 18 19 20 21 22 23 23 24 25 25 26 25 24 24 23 22 21 20 20 19 17 15 14 14 14 14 14 13 11 8 7 6 5 5 6 5 4 4 5 6 8 10 13 14 12 7 5 4 3 4 5 6 4 5 7 9 9 10 12 12 13 14 15 16 18 20 20 21
Wind_Direction
203 203 202 202 204 206 208 210 209 209 210 211 210 208 206 208 213 214 213 216 221 221 221 221 225 230 231 233 236 241 243 243 244 246 249 254 257 258 260 262 265 267 268 269 268 267 269 269 269 269 267 263 261 264 266 267 268 267 266 265 261 259 259 252 245 270 287 293 300 308 314 315 316 321 324 323 326 328 327 327 325 322 320 318 315
201 198 195 196 205 210 211 210 210 209 209 211 210 207 206 208 212 216 218 222 224 226 227 229 232 237 238 242 246 250 254 255 254 252 253 256 257 257 258 261 264 265 265 266 267 268 270 271 272 274 272 264 260 263 267 269 268 266 265 265 265 264 264 262 257 260 283 293 298 304 309 309 310 317 321 320 321 324 324 325 324 320 317 316 313
195 190 189 195 207 214 215 213 212 211 211 211 211 208 208 210 212 217 221 224 224 227 233 237 238 242 245 248 253 257 260 261 260 259 258 258 259 259 260 263 265 267 267 268 269 268 270 272 273 276 274 266 261 262 266 268 268 267 267 266 266 269 269 266 263 258 269 286 294 300 305 306 306 312 317 317 318 320 319 319 320 318 316 314 312
186 186 192 199 205 211 214 214 213 212 213 214 213 212 212 212 214 219 225 227 225 225 230 237 241 245 248 250 254 258 261 262 263 264 262 261 262 262 264 266 268 271 272 273 273 272 272 272 274 276 273 268 265 265 265 265 266 267 268 268 267 270 271 269 267 264 262 276 289 294 299 301 302 307 312 314 315 316 315 314 316 315 314 313 311
185 188 193 197 201 206 211 213 214 213 214 215 215 215 215 216 218 222 224 224 225 227 232 239 245 247 248 251 254 258 261 262 261 262 265 266 266 265 265 266 269 272 275 277 276 274 274 274 276 277 274 271 270 269 268 267 267 266 267 269 269 270 272 271 269 267 262 267 282 291 295 296 297 301 306 309 312 313 311 311 312 313 313 312 310
187 187 192 197 201 206 207 210 213 214 215 216 216 217 219 220 222 222 221 220 224 231 238 244 247 246 246 248 253 256 259 258 257 263 272 272 268 266 264 264 268 274 278 280 277 274 273 273 275 276 273 272 272 273 274 274 272 270 269 270 272 271 271 271 269 267 266 270 279 286 291 292 293 297 303 307 307 307 308 308 310 312 311 310 309
185 187 194 198 201 203 203 209 213 214 215 216 216 219 222 223 222 221 222 222 227 233 239 243 244 242 242 245 248 253 255 253 258 273 281 278 274 271 268 268 272 277 282 284 279 272 269 269 270 272 272 274 276 276 278 279 279 278 277 276 275 272 270 270 270 269 271 274 278 282 286 289 290 292 300 305 304 302 305 306 307 310 310 307 306
186 190 192 192 196 201 202 208 215 216 216 216 217 220 222 223 221 222 226 229 231 236 240 242 240 236 239 245 248 250 251 251 261 275 280 280 279 277 275 274 277 281 285 286 281 273 268 266 266 269 271 273 275 276 278 281 283 284 284 283 280 276 273 273 272 271 272 274 277 280 283 287 289 292 297 302 300 301 305 304 302 304 306 305 303
189 190 187 185 198 205 203 206 213 215 215 216 218 221 222 222 220 223 229 233 235 241 244 239 233 232 239 245 247 247 249 254 262 270 273 275 277 278 279 278 279 283 285 285 283 278 274 270 268 268 271 274 275 275 275 277 281 284 287 288 285 281 277 273 271 271 272 275 276 278 281 284 288 292 294 295 296 300 303 301 297 299 302 302 301
188 186 185 191 201 203 201 206 211 211 213 217 220 221 222 220 220 224 229 232 238 244 242 232 228 232 240 243 245 249 254 259 263 265 267 271 275 278 281 281 280 281 283 284 283 283 282 280 276 274 275 276 276 275 274 275 278 280 284 288 287 283 276 272 271 271 273 274 274 278 281 281 284 288 289 291 294 298 299 298 296 299 302 301 299
189 188 189 194 198 192 193 212 219 213 213 219 223 226 228 226 224 227 230 232 239 243 237 229 230 237 244 248 250 255 259 261 262 264 267 272 276 279 281 282 282 281 281 281 282 285 288 288 285 283 282 280 278 276 276 279 281 281 283 286 286 281 275 271 271 272 272 271 273 278 280 279 283 287 289 290 293 294 296 298 297 298 301 299 298
191 189 185 183 179 174 191 218 228 220 216 220 222 227 237 238 234 233 233 234 238 240 234 230 235 243 250 253 255 258 262 264 265 268 272 276 278 280 281 281 280 280 280 280 281 285 289 291 291 291 289 287 284 280 277 280 284 284 284 286 283 278 276 273 272 274 273 272 274 279 281 281 284 287 287 288 290 293 297 298 297 295 294 291 288
178 169 163 165 171 181 197 212 220 219 217 217 217 220 234 244 243 238 236 236 238 239 234 233 239 246 249 252 256 262 267 270 273 274 274 278 280 279 278 277 277 278 278 278 278 281 284 288 292 293 292 291 288 283 280 282 285 286 285 283 279 277 279 279 278 279 277 275 274 277 280 281 280 283 287 289 291 295 298 298 297 295 291 287 285
161 160 166 178 187 191 198 206 208 211 212 213 217 223 233 244 246 241 239 238 238 237 233 235 242 247 248 253 261 268 272 275 281 283 280 280 281 278 276 275 274 275 275 274 274 277 283 290 292 291 291 291 288 284 283 284 287 288 285 281 279 280 283 286 287 287 284 279 275 277 281 282 279 282 289 293 292 293 295 296 296 294 290 288 287
175 175 177 186 192 193 198 204 202 202 205 209 217 227 234 241 244 243 241 238 237 236 235 239 245 248 252 259 265 270 274 276 284 290 289 285 282 280 279 279 278 277 275 272 271 276 286 293 292 289 288 290 289 287 287 289 291 289 284 281 281 282 286 290 292 292 291 288 283 281 285 287 285 286 290 293 293 294 296 296 294 293 291 290 288
182 182 182 186 191 192 198 202 198 199 204 210 218 229 236 241 244 242 241 240 238 238 238 242 248 252 257 263 265 268 273 277 284 292 292 284 280 282 284 283 284 281 275 271 270 278 289 292 286 285 287 289 288 287 289 291 291 288 285 283 284 285 290 294 295 295 297 298 293 288 287 289 289 288 290 295 299 301 301 298 295 295 292 290 289
186 186 181 182 189 193 193 192 193 200 208 214 221 231 239 243 242 239 239 240 238 237 239 244 250 255 260 263 264 269 275 281 287 289 284 278 279 283 284 284 284 280 275 271 272 280 289 289 282 283 288 290 289 286 285 286 286 285 284 286 287 289 294 298 299 300 302 302 300 296 294 294 293 293 296 304 309 308 302 295 295 297 295 289 290
190 186 179 180 190 194 190 189 193 200 210 218 223 231 240 244 241 239 240 240 238 238 241 245 251 256 259 263 267 273 279 284 285 283 279 278 280 281 281 281 279 275 272 272 274 280 285 284 283 288 291 291 288 281 278 279 280 281 283 288 290 290 295 300 302 304 306 306 305 304 302 301 300 299 301 307 312 310 301 293 295 298 295 290 291
193 183 176 181 194 197 192 191 196 200 209 219 225 231 240 245 243 241 241 240 240 240 242 245 249 251 254 262 269 274 278 281 283 283 282 280 279 279 278 274 269 266 269 272 275 280 283 283 286 292 291 286 279 275 273 273 275 280 286 289 288 289 296 302 304 307 309 309 310 309 306 305 304 303 303 306 312 313 306 300 300 298 294 292 292
185 171 173 186 198 200 194 193 198 203 211 219 227 233 242 245 243 241 241 239 239 240 238 238 239 238 242 254 264 269 275 281 282 280 278 275 274 274 269 263 259 262 268 273 277 283 288 290 294 296 290 281 275 273 273 271 276 285 288 286 286 292 301 304 305 309 310 308 308 307 307 308 310 311 310 311 315 317 313 310 306 300 296 294 293
167 169 183 193 201 203 197 195 200 206 212 221 229 237 244 245 241 239 238 237 236 235 234 233 230 230 240 259 268 269 274 279 278 272 269 269 268 265 257 254 257 263 269 274 279 288 295 299 302 300 291 284 279 276 276 279 284 288 287 286 293 301 307 308 309 311 309 307 309 310 311 315 318 317 317 317 319 319 317 316 313 307 303 297 293
173 179 186 194 203 206 200 198 204 208 213 221 228 237 243 241 236 233 232 230 230 229 228 228 228 233 249 261 263 264 270 274 272 265 263 262 258 254 251 253 260 265 270 275 282 291 298 302 303 299 293 291 289 285 284 284 284 282 283 293 305 311 313 312 311 312 312 314 317 318 319 322 321 320 321 321 321 321 320 319 318 316 313 307 302
173 175 181 192 206 210 205 203 207 211 216 225 233 237 238 234 229 228 226 224 222 220 220 225 234 249 258 256 255 263 269 266 262 260 257 253 249 248 250 256 261 265 271 279 287 294 299 302 302 297 292 293 295 291 284 275 269 283 297 306 313 317 318 317 317 320 322 324 325 323 323 324 322 321 322 321 322 323 322 321 322 322 321 320 319
170 175 183 191 204 216 215 212 217 224 230 238 239 236 232 228 227 228 225 220 217 218 224 232 239 247 250 252 259 267 261 252 251 252 249 244 243 246 250 255 260 266 275 283 290 296 301 303 303 301 297 294 292 283 255 226 272 301 307 310 313 318 322 326 332 337 337 334 330 325 324 325 323 322 322 322 323 325 325 325 328 328 329 330 333
180 187 189 191 204 224 227 223 229 239 243 244 239 231 226 224 222 220 218 216 218 223 228 235 239 239 244 255 266 263 246 241 241 242 240 238 241 246 250 256 264 272 280 284 289 296 301 303 303 303 301 293 268 196 159 192 294 301 304 308 315 324 334 340 346 348 343 337 332 326 324 326 327 325 325 325 328 330 331 332 333 336 340 340 340
191 193 192 195 210 227 229 227 232 241 244 240 233 227 224 222 217 214 214 214 217 223 228 232 237 240 245 256 259 244 233 232 232 233 236 239 246 252 257 263 269 275 278 281 288 296 299 302 309 311 296 175 153 153 180 248 276 289 300 311 324 340 351 353 354 352 345 337 333 329 327 329 330 330 333 334 334 335 335 335 335 339 344 342 337
196 193 192 199 213 224 228 230 233 236 234 227 222 222 223 224 220 217 216 216 218 226 232 231 229 232 240 248 244 229 222 223 226 234 242 247 255 260 263 267 271 272 272 276 286 291 280 220 112 108 145 157 165 191 238 258 279 294 304 320 341 358 4 3 1 358 350 342 337 333 333 335 336 337 339 339 337 338 339 338 337 338 341 337 330
186 186 194 204 214 223 229 231 229 223 216 211 211 214 217 219 219 218 219 222 226 231 231 227 226 233 240 240 231 218 215 219 226 236 244 251 258 262 266 270 270 267 271 281 286 271 209 170 152 149 165 186 213 240 254 271 297 313 327 345 358 7 11 9 6 4 360 352 345 341 340 342 342 341 341 339 337 340 343 342 339 338 339 337 333
174 180 198 209 217 223 225 224 218 208 201 197 198 200 201 205 210 214 220 226 228 230 231 229 231 234 230 225 222 218 221 229 235 240 245 252 260 265 269 268 264 267 282 291 274 216 184 178 182 191 220 269 284 291 330 2 12 9 5 6 8 11 14 12 7 4 2 357 351 347 346 345 343 342 341 340 339 342 345 344 341 341 341 338 336
169 178 196 211 218 218 214 211 206 200 195 191 187 185 189 197 204 212 219 221 220 222 223 220 215 213 210 213 224 233 238 240 241 243 249 256 265 269 264 257 260 278 296 281 216 186 180 185 194 244 324 348 30 46 39 31 24 16 13 13 12 12 13 12 7 2 1 359 354 351 349 346 343 343 343 340 339 342 345 346 344 344 344 339 337
166 176 195 211 216 210 204 201 197 193 190 188 187 183 181 184 191 197 203 205 206 208 206 201 199 204 213 220 224 228 233 232 234 242 252 261 269 266 250 243 265 312 301 215 192 185 188 199 203 319 346 58 58 45 35 29 21 12 8 9 11 10 8 6 3 0 360 360 357 355 353 349 345 344 343 341 339 340 343 347 348 346 344 342 341
180 188 196 205 206 200 196 193 191 187 184 185 187 185 179 170 163 166 175 184 189 193 194 194 195 197 204 212 212 208 206 216 237 255 264 270 268 251 232 233 287 359 209 214 209 204 212 220 200 121 76 66 52 37 25 22 20 14 7 3 4 4 3 2 1 0 2 2 359 356 354 351 347 347 346 343 342 341 342 346 347 346 346 345 343
200 199 195 194 193 192 191 190 188 188 189 189 190 190 188 179 168 159 159 165 173 181 182 181 182 181 185 192 193 186 187 209 256 282 291 285 261 237 227 234 252 265 250 242 230 208 189 167 131 99 73 55 47 35 21 14 13 12 8 1 357 357 357 358 359 1 5 6 2 359 357 354 351 349 348 347 345 343 342 345 345 346 348 347 341
206 204 195 190 188 190 192 193 193 194 196 196 195 194 194 191 182 171 163 160 161 165 166 166 170 174 175 173 166 160 153 144 351 347 348 318 230 215 217 226 238 265 262 239 208 177 161 145 118 90 66 52 45 31 16 7 2 1 360 357 354 354 356 359 4 8 11 11 8 4 2 360 356 352 349 347 347 345 343 345 346 346 348 345 340
207 202 196 194 195 196 197 198 198 198 197 197 197 196 195 193 188 181 176 172 169 164 159 159 164 168 168 163 158 152 140 104 35 17 24 50 180 189 194 209 227 244 221 185 170 162 157 144 118 93 76 63 47 26 9 0 358 355 352 351 354 358 2 6 11 14 16 15 12 9 7 4 360 355 350 347 347 346 344 344 346 347 348 345 343
194 191 192 197 198 197 198 199 199 200 199 198 198 197 194 191 188 186 183 179 173 167 163 162 163 166 169 168 165 165 164 152 13 10 30 102 188 202 215 226 223 199 172 165 162 158 155 146 126 103 81 56 37 22 8 360 357 354 351 352 357 3 9 14 17 18 19 18 15 12 10 6 2 358 354 350 348 348 347 346 346 348 350 350 349
181 183 186 189 189 189 192 196 199 202 201 199 196 194 192 189 186 182 178 175 173 170 167 167 170 175 178 180 184 191 204 232 262 278 282 266 241 240 245 241 221 195 176 164 158 156 151 140 128 108 66 37 23 12 3 360 359 358 357 359 4 10 17 21 22 22 21 19 17 15 11 8 5 2 357 352 351 351 351 350 349 350 352 355 357
180 180 178 177 179 182 188 194 199 200 199 197 195 193 190 186 181 177 176 175 174 174 173 174 181 188 189 190 199 214 232 250 255 254 258 268 277 272 251 228 208 193 180 167 159 153 141 133 129 119 59 26 9 2 1 2 4 3 2 6 15 22 25 25 25 25 23 21 19 17 13 11 9 7 1 356 353 352 352 353 353 352 352 356 358
171 169 168 172 177 182 189 195 196 194 192 191 191 189 185 181 177 177 178 174 175 178 180 182 190 197 196 197 209 227 242 250 246 237 235 244 260 269 249 217 199 190 181 173 164 149 133 129 130 112 50 13 1 0 2 5 6 4 4 13 26 29 29 29 28 26 24 21 19 18 16 13 12 10 7 2 357 355 355 355 357 355 353 353 355
167 166 172 180 182 182 188 192 192 191 188 187 187 186 185 185 185 184 181 179 180 185 188 193 200 202 199 202 220 236 242 239 231 222 222 228 240 245 236 219 206 195 182 170 161 150 142 140 143 121 45 7 2 3 4 6 8 7 7 19 33 33 32 33 30 27 24 21 19 18 17 15 15 14 10 6 3 1 359 358 359 1 360 358 357
178 176 180 184 181 178 183 189 193 195 193 190 190 191 191 192 193 192 189 187 188 191 196 203 208 206 203 211 227 236 236 232 222 215 217 227 237 237 229 218 209 197 183 171 164 162 164 168 174 176 23 9 6 6 6 7 10 10 10 21 34 36 34 33 31 28 26 21 20 19 18 17 17 15 11 8 8 8 7 6 5 5 6 7 6
185 181 181 181 178 180 188 193 195 198 196 193 195 198 199 200 200 197 193 191 193 195 199 204 207 207 208 215 223 224 226 227 220 215 219 229 236 233 221 213 208 199 187 179 177 181 187 193 198 200 359 10 6 4 5 8 10 11 13 20 31 35 34 31 28 27 25 22 21 20 18 17 19 18 15 13 14 14 12 10 10 10 10 11 12
185 181 179 179 182 190 196 197 196 198 200 200 201 202 203 204 201 195 191 191 193 197 199 202 204 203 204 209 211 214 219 221 219 220 226 232 234 226 212 208 209 200 188 184 191 196 200 201 200 199 246 8 8 9 10 12 11 11 12 16 26 31 30 27 24 23 23 22 22 20 18 17 19 20 19 18 18 19 17 15 13 13 13 13 15
177 176 178 183 189 195 199 200 202 204 205 205 203 203 204 203 199 194 193 194 196 200 203 203 201 198 197 199 203 208 214 217 219 225 230 231 226 214 201 198 201 195 189 189 197 201 205 212 211 206 255 12 16 19 19 18 16 12 10 13 21 25 24 22 20 19 20 20 19 17 17 17 18 20 20 20 21 22 21 19 16 15 16 17 19
173 175 178 182 187 192 194 197 201 202 202 201 200 202 204 204 202 199 198 197 199 202 205 204 201 198 196 197 200 205 210 216 221 229 232 227 216 205 200 197 193 188 188 190 191 196 213 231 234 228 302 11 21 25 24 22 20 15 10 8 9 13 17 18 16 14 15 16 14 13 14 16 18 20 21 21 24 26 25 24 22 20 19 20 20
174 174 176 178 182 188 192 192 194 196 198 199 196 196 200 204 204 204 203 201 203 207 208 205 203 201 198 199 202 205 209 215 220 227 232 228 217 209 211 210 198 189 189 190 192 206 227 237 238 246 311 1 21 27 27 25 25 21 13 7 3 1 7 12 11 10 10 8 6 9 13 14 16 20 22 22 26 30 31 31 31 28 25 23 23
179 174 175 178 182 188 191 190 189 193 198 200 199 198 200 202 203 203 205 206 210 215 216 211 207 204 203 203 205 206 208 211 213 218 225 226 220 215 215 210 199 195 197 201 204 214 227 231 232 250 298 346 14 26 28 29 28 25 17 8 358 346 350 2 7 6 5 0 359 4 12 13 14 20 25 27 31 34 35 37 37 35 33 30 27
186 178 180 185 189 193 194 193 194 199 205 209 210 210 210 208 206 206 207 209 212 217 218 215 211 208 208 208 209 208 207 208 209 213 217 221 220 219 219 213 203 201 205 208 209 213 223 228 231 244 267 281 341 19 26 27 25 23 17 9 357 339 329 345 356 359 359 357 357 2 11 13 15 22 31 35 39 39 39 42 43 42 41 39 35
189 186 188 191 192 195 198 199 203 209 212 215 218 219 220 220 220 218 217 216 216 217 218 216 213 211 211 212 212 210 208 208 210 212 214 216 217 217 218 214 207 205 207 209 210 214 222 226 228 234 243 244 260 351 11 16 18 17 13 8 359 341 316 315 338 353 356 356 359 6 13 15 22 33 40 43 47 47 46 48 49 49 48 47 44
186 193 196 193 192 199 207 212 218 224 228 230 231 230 228 227 227 227 225 222 220 217 216 214 212 212 214 215 213 211 210 211 212 211 212 214 214 212 210 208 205 206 208 211 212 214 217 221 222 226 235 239 243 274 331 354 2 4 5 3 358 344 318 293 304 333 349 353 358 10 20 22 31 44 49 49 52 54 54 55 55 54 54 55 53
150 156 156 153 155 163 174 190 217 237 246 250 251 248 243 239 236 233 230 226 222 218 214 212 210 212 215 216 215 213 212 213 213 213 214 215 214 213 211 208 207 207 207 209 210 211 212 215 216 221 232 240 245 261 295 325 338 345 353 357 353 343 322 287 277 307 343 352 356 11 30 32 35 44 51 54 57 59 60 62 61 58 58 60 61
Height
774 777 780 784 788 790 792 794 795 797 798 799 801 802 804 806 807 809 810 810 811 811 811 811 811 811 812 812 812 812 812 813 813 813 813 813 813 813 813 813 813 812 813 813 813 813 812 812 811 811 811 810 810 810 809 809 809 809 808 807 807 806 805 804 803 799 796 796 795 793 792 789 787 785 782 779 778 777 775 773 771 769 767 764 761
772 775 780 785 789 791 792 793 794 795 796 798 799 800 802 804 805 807 808 808 809 810 810 810 810 810 810 810 810 810 811 811 811 811 811 811 811 811 811 811 811 811 811 811 811 811 811 810 810 810 809 808 808 808 807 807 807 806 806 805 804 804 803 802 801 798 795 793 792 791 789 788 786 783 781 778 775 774 772 770 768 766 764 762 759
770 774 778 781 784 788 790 791 792 793 795 796 798 799 800 801 803 804 805 805 806 807 808 808 808 808 808 808 808 808 809 809 809 809 809 809 809 809 809 809 809 809 809 809 809 809 809 808 808 808 807 806 806 806 805 805 805 804 803 803 802 801 801 800 799 797 794 791 790 788 787 785 783 781 779 776 773 771 769 767 765 763 761 759 757
768 770 773 774 776 781 786 788 790 792 793 795 796 797 798 799 800 801 802 803 803 804 805 806 807 806 806 806 806 806 807 807 807 807 807 807 807 807 807 807 807 807 807 806 806 807 806 806 806 806 806 805 804 804 803 803 802 802 801 801 800 799 799 798 796 795 793 790 788 786 785 783 780 778 776 773 771 770 767 764 762 760 758 756 754
763 765 768 771 774 778 782 785 787 789 791 793 794 795 797 798 799 799 800 801 802 802 803 803 804 804 803 803 804 804 804 805 805 805 805 805 805 805 805 805 805 804 804 804 804 804 804 804 804 804 804 803 802 801 801 800 800 800 799 798 798 797 796 795 794 792 791 789 786 784 783 781 778 775 774 771 768 766 764 762 760 757 754 752 750
758 761 764 767 769 773 778 781 784 786 788 789 791 794 795 795 796 797 797 798 799 800 800 801 801 801 801 801 802 802 803 803 803 803 803 804 804 804 803 803 802 802 801 801 801 802 802 802 802 802 802 801 800 799 799 798 798 797 797 796 795 794 793 792 791 790 789 788 785 783 781 779 776 773 771 770 767 763 760 758 756 755 752 748 746
755 757 758 759 765 771 775 778 780 781 784 787 789 791 792 793 794 795 796 796 797 797 798 799 799 799 799 800 800 801 801 801 801 801 802 802 802 802 801 800 800 799 799 798 799 799 799 799 799 799 799 798 798 797 797 796 795 795 794 793 793 792 790 789 788 788 786 785 784 782 779 776 774 770 767 767 766 763 760 755 751 750 749 745 742
751 752 754 760 767 770 770 772 775 778 781 784 787 789 790 791 792 794 795 795 795 796 796 797 798 798 798 799 799 799 799 799 799 800 800 800 800 800 799 798 797 797 796 796 796 796 796 796 796 796 796 796 795 795 794 794 793 792 791 791 790 789 788 787 786 785 784 783 781 780 777 774 771 768 765 764 762 761 760 756 750 746 745 742 738
746 749 754 759 763 762 762 764 770 776 780 782 785 787 788 790 791 792 793 792 793 794 795 796 797 797 798 798 798 798 798 797 797 798 798 798 799 798 797 796 795 795 794 794 794 794 794 794 793 793 793 793 793 792 792 791 791 790 789 788 788 786 785 784 784 783 782 780 778 777 775 773 769 766 763 762 760 757 756 755 749 744 742 738 733
743 746 748 749 750 754 762 767 770 774 778 781 783 785 787 789 790 790 789 789 790 792 794 795 796 796 796 796 796 795 795 795 795 795 796 796 796 796 795 794 793 793 793 792 792 791 791 791 791 791 791 790 790 790 789 789 788 787 787 786 785 784 783 782 781 780 779 778 776 774 772 770 767 764 761 759 758 755 752 751 747 742 739 734 727
740 743 744 746 751 760 772 778 777 776 778 780 782 785 788 789 786 786 787 787 788 790 792 794 794 795 794 794 793 793 792 792 792 792 793 793 793 793 792 792 791 791 791 790 790 789 789 789 788 788 787 787 787 786 786 786 785 785 784 783 782 781 780 779 778 777 776 775 773 771 769 766 764 762 759 755 754 752 749 747 744 740 736 732 725
741 745 749 755 763 771 780 783 781 780 779 780 783 785 789 788 785 784 784 785 786 788 790 792 792 792 792 791 790 790 789 789 789 790 790 790 790 790 789 789 789 789 789 788 787 787 786 786 786 785 784 784 783 783 783 782 782 782 781 780 779 778 777 777 775 774 773 772 770 768 766 763 761 759 756 752 750 749 746 744 742 738 734 731 725
746 750 754 760 765 768 773 775 777 779 778 778 781 781 784 785 784 783 783 783 785 786 788 789 790 790 789 788 788 787 786 787 787 787 787 787 787 787 786 787 787 786 786 785 785 785 784 784 783 782 781 781 780 780 780 779 779 778 778 777 776 775 775 774 772 771 770 769 767 765 762 760 758 755 752 750 747 745 743 739 737 734 730 726 721
743 745 748 753 756 758 762 764 766 769 771 775 777 777 778 780 780 781 781 781 782 784 785 786 786 787 786 786 785 785 784 784 784 784 784 783 784 784 784 784 784 784 783 783 783 782 782 782 781 780 779 778 778 777 777 776 776 775 774 774 773 772 772 770 769 768 767 766 764 761 758 757 755 751 749 747 745 743 740 736 731 728 725 719 715
734 735 737 740 744 749 754 756 757 761 766 771 773 773 774 775 776 778 778 778 779 781 782 783 783 784 783 783 783 782 782 783 782 781 781 781 782 782 782 782 782 781 781 780 780 780 780 780 779 778 777 776 775 775 775 774 773 772 771 770 770 769 768 767 766 765 763 762 760 758 755 753 751 748 746 745 743 740 737 733 728 723 718 712 707
729 729 730 733 738 743 749 755 759 762 766 768 769 770 770 771 773 775 775 775 777 779 780 781 781 781 781 781 780 780 780 780 780 779 779 779 780 780 780 779 779 778 778 778 778 778 778 778 777 776 775 774 773 773 772 771 770 769 768 767 767 766 764 763 762 761 760 758 756 754 752 749 747 745 744 742 739 736 733 729 724 719 714 706 700
724 725 727 732 738 741 746 753 757 761 764 765 766 767 767 769 771 771 772 773 775 776 777 778 778 778 778 778 778 778 778 778 778 777 777 778 778 778 778 777 776 776 776 776 776 776 776 775 775 774 773 771 771 770 769 769 767 767 766 765 764 763 761 760 759 758 756 755 752 751 748 746 744 742 741 739 736 733 730 725 719 714 710 703 694
720 721 724 730 737 741 743 747 750 755 760 762 762 763 765 768 769 768 769 771 772 773 774 774 775 776 776 776 777 777 776 776 776 776 776 776 776 776 776 775 774 774 774 774 774 774 774 773 773 772 770 769 768 767 766 766 765 764 763 763 761 759 757 757 756 754 752 751 748 746 744 742 741 739 737 735 732 730 727 722 715 710 706 699 690
717 721 727 735 741 743 742 743 747 750 755 757 759 760 762 765 766 765 766 768 769 770 771 771 772 773 774 775 775 775 775 774 774 774 774 774 774 774 774 773 772 772 772 772 772 772 772 772 771 770 768 767 766 765 764 763 763 762 762 761 759 757 756 755 753 751 749 747 745 743 741 739 738 736 734 731 729 726 723 718 712 707 701 693 685
720 729 737 743 746 746 743 742 745 747 751 754 757 758 760 762 763 763 764 766 767 768 768 768 769 770 771 771 771 772 772 772 772 773 772 772 772 772 772 771 771 770 770 770 770 770 770 770 769 768 766 764 763 762 762 762 761 761 760 759 757 756 754 753 752 750 747 745 743 741 738 736 735 733 730 727 724 721 717 713 709 703 697 688 679
725 732 737 740 745 747 744 742 743 746 749 752 755 756 758 759 760 760 761 763 765 765 766 766 767 767 768 769 769 769 770 770 771 771 771 771 771 770 770 770 769 769 769 768 768 768 768 767 766 765 764 762 761 761 760 760 759 759 758 758 757 755 754 752 750 748 746 744 741 739 737 735 732 730 727 723 720 716 712 708 702 697 692 683 672
724 728 732 737 743 745 743 741 742 745 748 751 752 753 755 756 756 757 758 760 761 763 763 764 765 765 766 767 767 767 767 768 768 769 769 769 769 769 769 768 768 768 767 767 767 767 766 765 764 763 762 760 760 759 759 758 758 758 757 757 756 754 753 751 749 747 745 742 740 737 735 733 730 727 723 719 715 712 707 702 696 690 684 677 666
723 726 730 735 740 742 740 740 741 744 747 749 750 750 752 754 754 755 756 757 759 760 761 762 763 763 764 765 766 765 765 766 767 767 767 768 768 767 767 766 766 766 766 766 765 765 764 762 761 760 760 759 758 757 757 757 757 757 756 756 754 753 752 750 748 746 744 742 739 737 734 732 729 725 720 716 712 708 703 697 690 683 676 668 658
724 725 725 728 734 738 740 740 742 745 747 747 747 748 750 752 752 753 754 756 757 759 760 760 761 762 763 763 763 763 763 764 765 766 766 766 766 765 765 765 765 765 765 764 763 762 761 760 759 758 757 757 756 756 756 756 757 756 755 754 753 752 751 749 747 746 743 741 739 736 733 731 728 723 719 715 710 704 699 693 686 679 671 662 652
723 723 724 726 731 737 740 741 743 744 745 745 746 747 748 750 751 752 753 754 756 757 758 758 759 760 761 761 761 761 762 763 764 764 764 764 763 763 763 763 764 764 763 763 762 761 759 758 757 756 755 755 755 756 756 756 756 755 754 754 752 751 749 748 746 745 743 741 738 736 733 729 726 722 717 713 708 702 696 690 682 674 666 657 648
722 723 724 726 732 737 739 739 741 742 743 744 745 746 747 748 749 750 752 753 754 754 756 757 758 759 759 759 760 761 761 762 762 762 762 762 762 762 762 763 763 762 762 761 760 759 758 757 756 755 754 755 755 755 756 755 755 754 754 753 751 750 748 747 745 744 742 740 738 735 732 728 724 720 715 711 706 701 696 689 681 672 664 657 650
722 722 723 726 730 734 736 737 739 740 741 742 743 744 746 746 748 749 750 751 752 753 755 756 757 758 758 758 759 760 760 761 761 760 760 760 761 761 761 762 762 761 760 759 758 757 757 756 755 755 755 755 755 755 755 755 754 753 753 752 750 748 747 746 745 744 742 740 737 734 731 727 723 718 713 709 705 701 696 690 683 675 668 662 655
720 721 723 725 728 732 734 736 736 737 739 740 741 743 744 746 747 748 749 750 751 753 754 755 756 756 757 758 759 759 759 759 759 759 760 760 760 760 760 760 760 759 758 758 757 756 756 755 755 755 755 755 754 754 754 754 753 752 752 751 749 747 746 745 744 743 741 739 736 733 730 726 722 717 713 709 705 701 696 691 686 679 672 665 657
715 717 720 724 727 730 732 734 735 736 737 738 740 742 743 745 746 747 748 749 750 752 753 753 754 755 756 757 757 757 757 758 758 758 759 759 759 759 758 758 758 757 756 756 755 755 755 755 755 755 754 754 753 753 753 752 752 751 751 749 748 746 745 744 743 741 739 737 735 732 729 725 721 718 713 709 704 700 697 692 687 681 673 666 659
712 713 716 721 725 728 731 732 734 735 736 737 738 740 742 743 745 746 747 748 749 750 751 752 753 754 755 755 755 755 756 756 757 758 758 758 758 757 757 756 756 756 755 755 755 755 755 754 754 754 753 753 752 752 751 751 750 750 749 748 747 746 744 744 742 741 739 737 734 732 729 725 722 718 714 709 704 700 697 693 688 683 676 670 662
712 713 716 721 725 728 730 731 732 733 734 736 737 738 740 742 744 745 746 747 748 749 750 751 752 753 753 754 754 755 755 756 756 756 756 756 756 756 755 755 755 755 755 755 755 755 755 754 754 753 753 752 752 751 751 750 749 748 748 747 746 745 744 744 742 740 738 736 733 731 728 725 722 719 715 711 706 702 698 694 690 685 679 673 667
713 715 717 721 724 727 728 729 730 731 733 735 737 738 739 742 743 745 746 747 748 749 750 751 751 752 752 753 754 754 755 755 755 755 755 755 755 754 755 755 754 754 755 755 755 755 755 754 754 753 753 752 752 752 751 750 749 748 747 747 746 745 744 743 742 740 738 735 733 731 728 725 723 719 716 712 708 704 700 695 692 687 682 677 671
713 715 717 720 723 725 726 726 728 730 731 733 736 737 739 741 742 743 745 747 748 750 751 751 751 751 752 752 753 754 754 754 754 754 753 754 754 754 754 754 754 754 755 755 755 755 755 754 754 753 753 753 752 752 752 751 750 749 748 747 746 745 744 743 742 740 738 736 733 731 728 725 723 719 716 713 709 705 701 697 693 689 685 680 675
712 714 715 718 721 723 724 725 726 728 730 732 734 736 738 740 741 742 744 746 749 750 751 751 751 751 751 752 753 753 754 753 753 753 753 753 753 753 754 754 754 754 754 754 754 754 754 754 754 753 753 753 752 752 752 751 750 749 748 747 746 745 744 743 741 740 737 735 733 730 728 726 723 720 717 713 710 706 703 699 695 691 687 683 679
714 715 716 718 720 722 723 724 725 727 729 731 733 735 737 740 741 742 743 744 747 748 749 750 751 751 751 752 752 753 753 753 753 753 753 753 753 753 754 754 754 754 754 754 754 754 754 754 754 754 754 753 752 752 752 751 750 749 748 747 745 744 743 742 741 739 737 735 733 730 728 726 723 720 718 714 711 708 704 700 697 693 689 686 681
714 716 718 719 720 721 723 724 726 727 729 731 733 735 737 739 741 741 742 743 744 746 747 749 750 750 751 752 752 753 754 754 754 753 753 754 754 754 754 754 754 754 754 754 754 754 754 754 754 754 754 753 753 752 752 751 750 749 748 747 745 744 743 742 740 739 737 735 733 731 728 726 723 721 718 715 712 709 705 702 698 695 691 688 684
714 716 718 719 720 722 723 725 726 728 730 731 733 735 737 739 740 740 741 742 743 745 746 748 749 750 751 752 752 753 753 754 754 754 754 754 754 754 754 754 754 754 754 754 754 754 754 755 754 754 754 753 753 752 751 750 749 748 747 746 745 744 744 742 741 739 737 735 733 731 729 727 724 721 719 716 713 710 706 703 699 696 693 690 686
715 716 718 719 721 722 723 725 727 729 730 732 733 734 736 737 738 739 740 741 742 744 745 747 748 749 750 751 752 753 753 753 753 754 754 754 754 753 753 754 754 754 754 754 754 754 754 755 754 754 754 753 753 752 751 750 749 748 747 746 746 745 744 743 741 740 738 736 734 732 729 727 724 722 720 717 714 711 708 705 701 697 694 691 688
714 716 718 719 721 722 723 725 727 729 730 731 732 733 734 736 737 738 739 740 741 743 744 746 747 749 750 751 752 752 752 753 753 753 754 754 754 754 754 754 754 754 754 754 754 754 755 755 754 754 754 753 753 752 751 750 749 748 747 747 746 745 744 743 741 740 738 736 734 732 730 728 725 723 720 718 716 713 709 706 703 700 696 693 690
712 714 716 718 720 722 723 725 727 728 728 729 730 732 733 734 735 737 738 739 740 742 744 745 747 748 749 751 751 751 752 752 753 753 754 754 754 753 753 753 754 754 754 754 754 754 755 754 754 754 754 753 753 752 751 750 749 748 748 747 746 745 744 743 741 740 738 737 735 733 731 729 726 723 721 719 717 714 711 708 704 702 699 695 692
712 713 715 717 719 721 722 725 726 727 727 728 729 731 732 733 734 736 737 738 739 741 743 744 746 747 749 750 750 751 751 752 752 753 753 753 753 753 753 753 754 754 754 754 754 754 754 754 754 754 754 753 753 752 751 750 750 749 748 747 746 746 745 743 742 741 739 737 736 734 732 730 727 724 722 720 718 715 712 709 706 702 700 697 693
712 714 716 717 719 720 722 724 725 726 727 728 729 730 731 732 733 735 736 737 739 740 742 744 745 746 748 748 749 750 750 751 751 752 752 752 752 752 752 753 753 754 754 754 754 754 754 754 754 754 754 753 753 752 751 751 750 749 748 747 746 746 745 743 742 741 740 738 737 735 733 730 728 726 724 721 719 716 713 710 707 704 701 698 696
712 714 715 717 718 719 721 723 724 725 727 728 728 730 731 731 732 733 735 736 738 740 741 742 744 745 746 747 748 749 749 750 751 751 751 752 752 752 752 752 753 753 754 754 753 753 754 754 754 754 754 753 753 752 751 750 749 749 748 747 746 746 745 744 743 741 740 739 737 735 733 731 729 727 725 723 721 718 715 712 709 706 703 701 698
711 713 714 716 717 719 721 722 724 725 726 727 728 729 730 731 732 733 734 736 737 738 740 741 742 743 745 746 746 747 748 749 750 750 750 751 751 751 752 752 752 752 753 753 753 753 753 753 754 754 753 753 752 752 751 750 749 749 748 747 746 746 745 744 743 741 740 739 737 736 734 732 730 728 727 724 722 720 717 714 712 709 706 703 700
710 712 714 715 717 719 721 722 724 725 726 727 728 729 730 731 732 733 734 735 736 737 739 740 741 742 743 744 745 746 747 748 749 749 749 750 751 751 752 752 752 752 752 752 752 753 753 753 753 753 753 753 752 752 751 750 749 748 748 747 746 746 745 744 743 742 741 740 738 737 735 733 732 730 728 726 724 722 719 717 714 711 708 706 703
712 713 715 716 718 719 721 722 724 725 726 727 727 728 729 730 731 732 733 734 735 736 738 738 739 741 742 743 744 745 746 747 748 748 748 749 750 750 751 751 752 752 752 752 752 752 752 753 753 753 752 752 752 752 751 750 749 748 748 747 746 746 745 744 743 742 741 740 739 738 736 735 733 731 730 728 726 724 721 719 716 714 711 709 706
714 714 716 717 718 720 721 722 723 724 725 726 727 728 729 730 730 731 732 733 734 735 736 737 738 739 740 741 743 743 744 745 746 747 747 748 749 750 750 750 751 751 751 751 751 751 752 752 752 752 752 752 752 751 751 750 749 749 748 747 746 746 745 744 744 743 742 741 740 738 737 736 734 733 731 729 727 725 723 721 719 716 714 712 709
715 715 717 718 719 720 721 722 723 724 725 725 726 727 728 729 730 730 731 732 733 733 734 735 736 737 739 740 741 741 742 744 744 745 746 746 747 748 749 749 749 750 750 750 750 751 751 751 752 751 751 751 751 751 751 750 749 749 748 747 746 746 745 744 744 743 742 742 740 739 738 737 735 734 732 730 728 727 725 723 721 719 717 714 712
715 716 717 718 719 720 721 721 722 723 723 724 725 726 726 727 728 729 729 730 731 731 732 733 734 735 736 738 738 740 741 742 743 744 744 745 746 747 747 748 748 748 748 749 750 750 750 751 751 751 751 751 750 750 750 750 749 749 748 747 746 745 745 744 744 743 743 742 741 740 739 738 736 735 733 731 730 728 727 725 723 721 719 717 715
716 717 717 718 719 720 721 721 722 723 723 724 725 725 725 726 727 727 728 728 729 729 730 731 732 733 734 735 736 737 738 739 740 742 743 743 744 745 746 747 747 747 747 748 748 749 749 750 750 750 750 750 750 750 750 749 749 748 747 747 746 745 744 744 744 743 743 742 741 741 740 738 737 736 734 732 731 730 728 727 725 724 722 720 719
716 717 718 718 719 720 720 721 722 722 723 724 724 724 725 725 725 725 726 726 726 727 727 728 729 730 731 732 733 735 736 737 738 740 741 742 743 743 744 745 746 746 746 746 747 748 748 749 749 749 749 749 749 749 749 749 748 748 747 747 745 744 743 743 743 743 743 742 742 741 740 739 738 736 735 733 732 731 730 729 727 726 724 723 722